Hourly Weather Dorchester

Today, 11 July, Saturday

Time Temperature Precipitation Wind Pressure Humidity
00:00 +9°C° 0 mm 2 mps 763 mmHg 86%
01:00 +9°C° 0 mm 2 mps 763 mmHg 88%
02:00 +8°C° 0 mm 2 mps 763 mmHg 91%
03:00 +8°C° 0 mm 2 mps 763 mmHg 93%
04:00 +9°C° 0 mm 2 mps 763 mmHg 91%
05:00 +10°C° 0 mm 3 mps 764 mmHg 89%
06:00 +11°C° 0 mm 3 mps 764 mmHg 86%
07:00 +12°C° 0 mm 3 mps 764 mmHg 80%
08:00 +14°C° 0 mm 3 mps 765 mmHg 74%
09:00 +15°C° 0 mm 4 mps 765 mmHg 69%
10:00 +17°C° 0 mm 4 mps 765 mmHg 66%
11:00 +17°C° 0 mm 4 mps 765 mmHg 64%
12:00 +18°C° 0 mm 4 mps 765 mmHg 62%
13:00 +18°C° 0 mm 4 mps 765 mmHg 62%
14:00 +19°C° 0 mm 3 mps 765 mmHg 61%
15:00 +19°C° 0 mm 3 mps 765 mmHg 61%
16:00 +19°C° 0 mm 3 mps 765 mmHg 63%
17:00 +18°C° 0 mm 3 mps 765 mmHg 65%
18:00 +18°C° 0 mm 2 mps 765 mmHg 67%
19:00 +17°C° 0 mm 2 mps 766 mmHg 73%
20:00 +15°C° 0 mm 1 mps 766 mmHg 78%
21:00 +13°C° 0 mm 1 mps 766 mmHg 83%
22:00 +12°C° 0 mm 1 mps 766 mmHg 84%
23:00 +12°C° 0 mm 1 mps 766 mmHg 84%

Tomorrow, 12 July, Sunday

Time Temperature Precipitation Wind Pressure Humidity
00:00 +11°C° 0 mm 1 mps 766 mmHg 85%
01:00 +11°C° 0 mm 1 mps 766 mmHg 85%
02:00 +10°C° 0 mm 1 mps 766 mmHg 85%
03:00 +10°C° 0 mm 1 mps 766 mmHg 85%
04:00 +10°C° 0 mm 1 mps 766 mmHg 82%
05:00 +11°C° 0 mm 1 mps 766 mmHg 80%
06:00 +12°C° 0 mm 1 mps 766 mmHg 78%
07:00 +14°C° 0 mm 1 mps 766 mmHg 73%
08:00 +15°C° 0 mm 0 mps 767 mmHg 68%
09:00 +16°C° 0 mm 0 mps 767 mmHg 63%
10:00 +17°C° 0 mm 0 mps 767 mmHg 60%
11:00 +21°C° 0 mm 1 mps 767 mmHg 56%
12:00 +22°C° 0 mm 1 mps 767 mmHg 52%
13:00 +22°C° 0 mm 1 mps 766 mmHg 50%
14:00 +22°C° 0 mm 1 mps 766 mmHg 49%
15:00 +23°C° 0 mm 1 mps 766 mmHg 47%
16:00 +22°C° 0 mm 1 mps 765 mmHg 52%
17:00 +22°C° 0 mm 1 mps 765 mmHg 57%
18:00 +21°C° 0 mm 1 mps 765 mmHg 63%
19:00 +20°C° 0 mm 1 mps 765 mmHg 66%
20:00 +18°C° 0 mm 1 mps 765 mmHg 70%
21:00 +15°C° 0 mm 1 mps 765 mmHg 74%
22:00 +14°C° 0 mm 1 mps 765 mmHg 76%
23:00 +13°C° 0 mm 1 mps 765 mmHg 77%

Day after tomorrow, 13 July, Monday

Time Temperature Precipitation Wind Pressure Humidity
00:00 +12°C° 0 mm 1 mps 765 mmHg 79%
01:00 +12°C° 0 mm 1 mps 765 mmHg 79%
02:00 +12°C° 0 mm 1 mps 765 mmHg 79%
03:00 +11°C° 0 mm 1 mps 764 mmHg 79%
04:00 +12°C° 0 mm 2 mps 764 mmHg 77%
05:00 +12°C° 0 mm 2 mps 764 mmHg 75%
06:00 +13°C° 0 mm 2 mps 764 mmHg 73%
07:00 +15°C° 0 mm 2 mps 764 mmHg 69%
08:00 +17°C° 0 mm 3 mps 764 mmHg 65%
09:00 +18°C° 0 mm 3 mps 763 mmHg 61%
10:00 +19°C° 0 mm 3 mps 763 mmHg 61%
11:00 +20°C° 0 mm 4 mps 763 mmHg 61%
12:00 +21°C° 0 mm 4 mps 763 mmHg 61%
13:00 +21°C° 0 mm 4 mps 762 mmHg 61%
14:00 +21°C° 0 mm 5 mps 762 mmHg 62%
15:00 +21°C° 0 mm 5 mps 762 mmHg 63%
16:00 +20°C° 0 mm 5 mps 761 mmHg 65%
17:00 +19°C° 0 mm 5 mps 761 mmHg 68%
18:00 +18°C° 0 mm 4 mps 761 mmHg 71%
19:00 +17°C° 0.2 mm 4 mps 760 mmHg 76%
20:00 +15°C° 0.2 mm 4 mps 760 mmHg 81%
21:00 +14°C° 0.2 mm 3 mps 760 mmHg 87%
22:00 +14°C° 0.5 mm 3 mps 760 mmHg 89%
23:00 +14°C° 0.5 mm 3 mps 759 mmHg 91%

14 July, Tuesday

Time Temperature Precipitation Wind Pressure Humidity
00:00 +14°C° 0.5 mm 4 mps 759 mmHg 92%
01:00 +14°C° 0.5 mm 4 mps 758 mmHg 94%
02:00 +14°C° 0.5 mm 4 mps 758 mmHg 95%
03:00 +14°C° 0.5 mm 4 mps 757 mmHg 96%
04:00 +14°C° 0 mm 4 mps 757 mmHg 96%
05:00 +16°C° 0 mm 3 mps 757 mmHg 96%
06:00 +16°C° 0 mm 3 mps 757 mmHg 95%
07:00 +17°C° 0.2 mm 3 mps 757 mmHg 92%
08:00 +18°C° 0.2 mm 3 mps 757 mmHg 89%
09:00 +19°C° 0.2 mm 3 mps 757 mmHg 85%
10:00 +19°C° 0.4 mm 3 mps 757 mmHg 81%
11:00 +20°C° 0.4 mm 4 mps 757 mmHg 76%
12:00 +21°C° 0.4 mm 4 mps 756 mmHg 71%
13:00 +21°C° 0.1 mm 5 mps 756 mmHg 69%
14:00 +21°C° 0.1 mm 5 mps 756 mmHg 67%
15:00 +21°C° 0.1 mm 6 mps 756 mmHg 64%
16:00 +20°C° 0 mm 6 mps 756 mmHg 67%
17:00 +17°C° 0 mm 6 mps 756 mmHg 70%
18:00 +15°C° 0 mm 5 mps 756 mmHg 73%
19:00 +15°C° 0 mm 5 mps 756 mmHg 75%
20:00 +14°C° 0 mm 5 mps 756 mmHg 77%
21:00 +14°C° 0 mm 4 mps 756 mmHg 79%
22:00 +14°C° 0 mm 5 mps 755 mmHg 81%
23:00 +14°C° 0 mm 5 mps 755 mmHg 84%

15 July, Wednesday

Time Temperature Precipitation Wind Pressure Humidity
00:00 +14°C° 0 mm 6 mps 755 mmHg 86%
01:00 +15°C° 0 mm 6 mps 754 mmHg 85%
02:00 +15°C° 0 mm 6 mps 754 mmHg 85%
03:00 +15°C° 0 mm 5 mps 754 mmHg 84%
04:00 +15°C° 0 mm 5 mps 754 mmHg 85%
05:00 +15°C° 0 mm 5 mps 754 mmHg 85%
06:00 +14°C° 0 mm 5 mps 754 mmHg 85%
07:00 +15°C° 0 mm 6 mps 754 mmHg 81%
08:00 +16°C° 0 mm 6 mps 755 mmHg 77%
09:00 +17°C° 0 mm 6 mps 755 mmHg 73%
10:00 +19°C° 0.1 mm 6 mps 756 mmHg 70%
11:00 +20°C° 0.1 mm 6 mps 756 mmHg 68%
12:00 +20°C° 0.1 mm 6 mps 756 mmHg 66%
13:00 +21°C° 0.1 mm 5 mps 757 mmHg 65%
14:00 +21°C° 0.1 mm 5 mps 757 mmHg 65%
15:00 +21°C° 0.1 mm 5 mps 757 mmHg 65%
16:00 +21°C° 0 mm 4 mps 757 mmHg 67%
17:00 +20°C° 0 mm 4 mps 758 mmHg 69%
18:00 +20°C° 0 mm 4 mps 758 mmHg 71%
19:00 +18°C° 0 mm 3 mps 758 mmHg 76%
20:00 +17°C° 0 mm 3 mps 759 mmHg 82%
21:00 +14°C° 0 mm 3 mps 759 mmHg 87%
22:00 +14°C° 0 mm 2 mps 760 mmHg 87%
23:00 +13°C° 0 mm 2 mps 760 mmHg 86%

16 July, Thursday

Time Temperature Precipitation Wind Pressure Humidity
00:00 +13°C° 0 mm 2 mps 760 mmHg 86%
01:00 +12°C° 0 mm 2 mps 760 mmHg 87%
02:00 +12°C° 0 mm 2 mps 760 mmHg 88%
03:00 +10°C° 0 mm 2 mps 760 mmHg 89%
04:00 +12°C° 0 mm 2 mps 760 mmHg 87%
05:00 +13°C° 0 mm 2 mps 760 mmHg 86%
06:00 +14°C° 0 mm 2 mps 760 mmHg 85%
07:00 +16°C° 0 mm 2 mps 760 mmHg 80%
08:00 +17°C° 0 mm 3 mps 760 mmHg 75%
09:00 +19°C° 0 mm 3 mps 761 mmHg 71%
10:00 +20°C° 0 mm 3 mps 761 mmHg 69%
11:00 +21°C° 0 mm 4 mps 761 mmHg 68%
12:00 +21°C° 0 mm 4 mps 761 mmHg 66%
13:00 +22°C° 0 mm 4 mps 760 mmHg 68%
14:00 +22°C° 0 mm 4 mps 760 mmHg 69%
15:00 +22°C° 0 mm 4 mps 760 mmHg 70%
16:00 +22°C° 0.1 mm 4 mps 760 mmHg 73%
17:00 +21°C° 0.1 mm 4 mps 760 mmHg 75%
18:00 +21°C° 0.1 mm 4 mps 760 mmHg 78%
19:00 +20°C° 0.1 mm 3 mps 760 mmHg 83%
20:00 +18°C° 0.1 mm 3 mps 760 mmHg 88%
21:00 +17°C° 0.1 mm 3 mps 760 mmHg 93%
22:00 +17°C° 0 mm 3 mps 760 mmHg 94%
23:00 +16°C° 0 mm 3 mps 760 mmHg 95%
Show more